SL-3 R/B (13403 NORAD) Tracking and Keplerian Element Data

This shows tracking and keplerian element data for the satellite.

Feedback or suggestion? Click here.




ElementValue
Catalog13403
NameSL-3 R/B
Epoch Orbit25827
Epoch Day12.90032155
Epoch Year2024
RAAN33.4895
Inclination81.1509
Eccentricity0.0030025
Argument of Perigee286.744
Mean Anonmoly73.0492
Mean Motion15.12589096
Decay Rate5.11E-05
L11 13403U 82079B 24012.90032155 .00005110 00000+0 28838-3 0 9999
L22 13403 81.1509 33.4895 0030025 286.7440 73.0492 15.12589096258275



Live tracking and technical data element details for SL-3 R/B (NORAD 13403). SL-3 R/B can be tracked NOW for your location showing map with azimuth and elevation plus other details from your city location.







IsCatalogInMostPopularTable: catalog: 13403, numindb: 380
Update: records affected: 1



GetName: 13403 SL-3 R/B

Hit Count: updated at: Fri, 19 Apr 2024 13:12:36 GMT